Погода в Покровке

Россия / Самарская область     52°57′13″N   51°02′43″E
темп.,
°C
ветер,
м/с
пор.,
м/с
влажн.,
%
обл.,
%
осадки,
мм/ч
давл.,
гПа
погр.,
м
16 июня, ср
ср1601:00+21в4955100 0.0 1009157
04:00+18в47565 0.0 1009115
07:00+21ююв5126398 0.0 1008359
10:00+26ю79585 0.0 10091054
13:00+27ююз71150100 0.0 10101830
16:00+26ююз48597 0.0 1008507
19:00+23ююз477642 2.3 1009192
22:00+19ю338847 2.8 100938
17 июня, чт
чт1701:00+18юз37955 0.0 1008136
04:00+17з25965 0.0 1009102
07:00+19сз589392 0.0 1010502
10:00+19ссз61086100 0.0 1012733
13:00+22с686220 0.0 10131235
16:00+23с79480 0.0 10151428
19:00+20с59620 0.0 1017902
22:00+16ссз38780 0.0 1018155
18 июня, пт
пт1801:00+14ссз39804 0.0 1019152
04:00+14ссз310777 0.0 1020269
07:00+15с611700 0.0 1022605
10:00+17с79521 0.0 10231359
13:00+20с68500 0.0 10231645
16:00+21ссв574821 0.0 10241942
19:00+20с46612 0.0 1024504
22:00+14с357845 0.0 102569
19 июня, сб
сб1901:00+13с2381100 0.0 102636
04:00+12ссз228390 0.0 102712
07:00+16сз22700 0.0 1028194
10:00+21сз235122 0.0 1027889
13:00+23сз344550 0.0 10261295
16:00+24сз454314 0.0 10251428
19:00+23ссз25625 0.0 1024221
22:00+18з22770 0.0 102423
20 июня, вс
вс2001:00+17зсз34810 0.0 102464
04:00+16зсз34890 0.0 102458
07:00+21сз35790 0.0 1024250
10:00+25сз45630 0.0 1024762
13:00+28ссз45500 0.0 10231795
16:00+29ссз45460 0.0 10222115
19:00+27сз23631 0.0 1022113
22:00+21ссз34830 0.0 102364